• In Czech Republic
  • List of Countries
  • For 7 days
  • Water Temperature
  • Satellite Maps
  • Weather Map
  • Weather Widgets
  • user-avatar
    Login

    Hourly Weather Byala

    Today, 18 December, Monday

    Time Temperature Precipitation Wind Pressure Humidity
    00:00 0°C° 0 mm 8 mps 749 mmHg 83%
    01:00 0°C° 0 mm 8 mps 750 mmHg 83%
    02:00 -1°C° 0 mm 7 mps 751 mmHg 82%
    03:00 -1°C° 0 mm 7 mps 751 mmHg 83%
    04:00 -1°C° 0 mm 6 mps 752 mmHg 83%
    05:00 -1°C° 0 mm 6 mps 752 mmHg 83%
    06:00 0°C° 0 mm 5 mps 752 mmHg 85%
    07:00 0°C° 0 mm 5 mps 753 mmHg 86%
    08:00 0°C° 0 mm 4 mps 753 mmHg 86%
    09:00 0°C° 0 mm 4 mps 754 mmHg 82%
    10:00 +2°C° 0 mm 3 mps 754 mmHg 77%
    11:00 +3°C° 0 mm 3 mps 754 mmHg 73%
    12:00 +4°C° 0 mm 2 mps 754 mmHg 71%
    13:00 +5°C° 0 mm 2 mps 754 mmHg 68%
    14:00 +5°C° 0 mm 2 mps 754 mmHg 67%
    15:00 +5°C° 0 mm 2 mps 754 mmHg 68%
    16:00 +4°C° 0 mm 3 mps 754 mmHg 69%
    17:00 +3°C° 0 mm 3 mps 754 mmHg 71%
    18:00 +3°C° 0 mm 3 mps 754 mmHg 73%
    19:00 +3°C° 0 mm 3 mps 754 mmHg 75%
    20:00 +2°C° 0 mm 3 mps 754 mmHg 77%
    21:00 +1°C° 0.3 mm 4 mps 754 mmHg 77%
    22:00 +1°C° 0.3 mm 4 mps 754 mmHg 78%
    23:00 +1°C° 0.3 mm 5 mps 755 mmHg 78%

    Tomorrow, 19 December, Tuesday

    Time Temperature Precipitation Wind Pressure Humidity
    00:00 +1°C° 0.3 mm 6 mps 755 mmHg 79%
    01:00 -1°C° 0.3 mm 6 mps 755 mmHg 80%
    02:00 -1°C° 0.3 mm 7 mps 754 mmHg 81%
    03:00 -1°C° 0.6 mm 7 mps 755 mmHg 84%
    04:00 -2°C° 0.6 mm 7 mps 755 mmHg 86%
    05:00 -2°C° 0.6 mm 8 mps 755 mmHg 88%
    06:00 -2°C° 0.8 mm 8 mps 755 mmHg 89%
    07:00 -2°C° 0.8 mm 8 mps 756 mmHg 90%
    08:00 -4°C° 0.8 mm 8 mps 756 mmHg 91%
    09:00 -4°C° 0.4 mm 8 mps 757 mmHg 91%
    10:00 -2°C° 0.4 mm 8 mps 757 mmHg 90%
    11:00 -2°C° 0.4 mm 8 mps 758 mmHg 89%
    12:00 -2°C° 0.6 mm 7 mps 758 mmHg 89%
    13:00 -2°C° 0.6 mm 6 mps 758 mmHg 89%
    14:00 -2°C° 0.6 mm 6 mps 758 mmHg 88%
    15:00 -1°C° 0.2 mm 5 mps 759 mmHg 89%
    16:00 -1°C° 0.2 mm 5 mps 759 mmHg 90%
    17:00 -1°C° 0.2 mm 5 mps 760 mmHg 91%
    18:00 -2°C° 0 mm 4 mps 760 mmHg 91%
    19:00 -2°C° 0 mm 4 mps 760 mmHg 91%
    20:00 -2°C° 0 mm 4 mps 760 mmHg 92%
    21:00 -1°C° 0.1 mm 3 mps 760 mmHg 92%
    22:00 -1°C° 0.1 mm 3 mps 761 mmHg 92%
    23:00 -1°C° 0.1 mm 3 mps 761 mmHg 92%

    Day after tomorrow, 20 December, Wednesday

    Time Temperature Precipitation Wind Pressure Humidity
    00:00 -1°C° 0 mm 3 mps 761 mmHg 92%
    01:00 -1°C° 0 mm 3 mps 761 mmHg 92%
    02:00 -1°C° 0 mm 3 mps 761 mmHg 93%
    03:00 -1°C° 0 mm 3 mps 761 mmHg 93%
    04:00 -2°C° 0 mm 3 mps 761 mmHg 92%
    05:00 -2°C° 0 mm 3 mps 761 mmHg 92%
    06:00 -4°C° 0 mm 3 mps 761 mmHg 92%
    07:00 -4°C° 0 mm 3 mps 761 mmHg 91%
    08:00 -4°C° 0 mm 3 mps 762 mmHg 90%
    09:00 -2°C° 0 mm 3 mps 762 mmHg 87%
    10:00 -2°C° 0 mm 3 mps 762 mmHg 83%
    11:00 -2°C° 0 mm 4 mps 762 mmHg 80%
    12:00 0°C° 0 mm 3 mps 762 mmHg 80%
    13:00 0°C° 0 mm 3 mps 762 mmHg 80%
    14:00 0°C° 0 mm 3 mps 762 mmHg 80%
    15:00 -1°C° 0 mm 3 mps 762 mmHg 82%
    16:00 -2°C° 0 mm 3 mps 762 mmHg 85%
    17:00 -2°C° 0 mm 2 mps 762 mmHg 87%
    18:00 -3°C° 0 mm 2 mps 762 mmHg 87%
    19:00 -3°C° 0 mm 2 mps 762 mmHg 88%
    20:00 -3°C° 0 mm 2 mps 763 mmHg 88%
    21:00 -4°C° 0 mm 3 mps 763 mmHg 88%
    22:00 -5°C° 0 mm 3 mps 763 mmHg 87%
    23:00 -5°C° 0 mm 3 mps 763 mmHg 87%

    21 December, Thursday

    Time Temperature Precipitation Wind Pressure Humidity
    00:00 -5°C° 0 mm 3 mps 763 mmHg 86%
    01:00 -5°C° 0 mm 3 mps 763 mmHg 86%
    02:00 -5°C° 0 mm 3 mps 763 mmHg 85%
    03:00 -5°C° 0 mm 3 mps 763 mmHg 85%
    04:00 -5°C° 0 mm 3 mps 762 mmHg 84%
    05:00 -5°C° 0 mm 3 mps 762 mmHg 84%
    06:00 -5°C° 0 mm 3 mps 763 mmHg 83%
    07:00 -5°C° 0 mm 3 mps 763 mmHg 82%
    08:00 -5°C° 0 mm 4 mps 763 mmHg 81%
    09:00 -4°C° 0 mm 4 mps 763 mmHg 78%
    10:00 -3°C° 0 mm 4 mps 763 mmHg 75%
    11:00 -2°C° 0 mm 4 mps 763 mmHg 71%
    12:00 -1°C° 0 mm 4 mps 763 mmHg 72%
    13:00 -1°C° 0 mm 4 mps 762 mmHg 72%
    14:00 -1°C° 0 mm 4 mps 762 mmHg 72%
    15:00 -1°C° 0 mm 4 mps 762 mmHg 75%
    16:00 -2°C° 0 mm 4 mps 761 mmHg 77%
    17:00 -2°C° 0 mm 4 mps 761 mmHg 80%
    18:00 -2°C° 0 mm 4 mps 761 mmHg 80%
    19:00 -3°C° 0 mm 4 mps 761 mmHg 80%
    20:00 -3°C° 0 mm 4 mps 761 mmHg 79%
    21:00 -3°C° 0 mm 4 mps 761 mmHg 80%
    22:00 -4°C° 0 mm 4 mps 761 mmHg 81%
    23:00 -4°C° 0 mm 4 mps 761 mmHg 82%

    22 December, Friday

    Time Temperature Precipitation Wind Pressure Humidity
    00:00 -5°C° 0 mm 5 mps 761 mmHg 82%
    01:00 -6°C° 0 mm 5 mps 760 mmHg 82%
    02:00 -6°C° 0 mm 5 mps 760 mmHg 82%
    03:00 -6°C° 0 mm 5 mps 760 mmHg 82%
    04:00 -5°C° 0 mm 4 mps 760 mmHg 82%
    05:00 -5°C° 0 mm 4 mps 759 mmHg 82%
    06:00 -5°C° 0 mm 4 mps 759 mmHg 81%
    07:00 -5°C° 0 mm 4 mps 759 mmHg 81%
    08:00 -5°C° 0 mm 4 mps 759 mmHg 80%
    09:00 -4°C° 0 mm 4 mps 759 mmHg 76%
    10:00 -3°C° 0 mm 4 mps 759 mmHg 72%
    11:00 -2°C° 0 mm 4 mps 759 mmHg 68%
    12:00 -1°C° 0 mm 4 mps 759 mmHg 68%
    13:00 -1°C° 0 mm 4 mps 758 mmHg 68%
    14:00 0°C° 0 mm 4 mps 758 mmHg 68%
    15:00 -1°C° 0 mm 4 mps 757 mmHg 72%
    16:00 -1°C° 0 mm 3 mps 757 mmHg 75%
    17:00 -2°C° 0 mm 3 mps 757 mmHg 78%
    18:00 -2°C° 0 mm 3 mps 757 mmHg 78%
    19:00 -2°C° 0 mm 3 mps 756 mmHg 77%
    20:00 -2°C° 0 mm 3 mps 756 mmHg 77%
    21:00 -2°C° 0 mm 3 mps 756 mmHg 77%
    22:00 -2°C° 0 mm 3 mps 755 mmHg 76%
    23:00 -4°C° 0 mm 3 mps 755 mmHg 76%

    23 December, Saturday

    Time Temperature Precipitation Wind Pressure Humidity
    00:00 -4°C° 0 mm 3 mps 754 mmHg 78%
    01:00 -4°C° 0 mm 3 mps 754 mmHg 79%
    02:00 -3°C° 0 mm 4 mps 753 mmHg 80%
    03:00 -3°C° 0 mm 4 mps 752 mmHg 82%
    04:00 -3°C° 0 mm 4 mps 752 mmHg 84%
    05:00 -3°C° 0 mm 4 mps 751 mmHg 86%
    06:00 -2°C° 0 mm 3 mps 751 mmHg 87%
    07:00 -2°C° 0 mm 3 mps 750 mmHg 88%
    08:00 -2°C° 0 mm 3 mps 750 mmHg 89%
    09:00 -2°C° 0 mm 4 mps 749 mmHg 88%
    10:00 -2°C° 0 mm 5 mps 749 mmHg 87%
    11:00 -1°C° 0 mm 5 mps 749 mmHg 85%
    12:00 -1°C° 0 mm 5 mps 748 mmHg 85%
    13:00 0°C° 0 mm 5 mps 748 mmHg 84%
    14:00 0°C° 0 mm 5 mps 747 mmHg 83%
    15:00 -2°C° 0 mm 6 mps 747 mmHg 83%
    16:00 -2°C° 0 mm 6 mps 748 mmHg 84%
    17:00 -3°C° 0 mm 7 mps 748 mmHg 84%
    18:00 -3°C° 0.1 mm 7 mps 748 mmHg 85%
    19:00 -4°C° 0.1 mm 8 mps 749 mmHg 87%
    20:00 -4°C° 0.1 mm 8 mps 749 mmHg 88%
    21:00 -4°C° 0.4 mm 9 mps 749 mmHg 88%
    22:00 -4°C° 0.4 mm 9 mps 750 mmHg 88%
    23:00 -4°C° 0.4 mm 9 mps 750 mmHg 89%
    Show more